Location: Crocus Hill
(18.2167°N, 63.0667°W)
Time: 17:28:39
(UTC+00:00)

Meteosat 1 Rocket2 - Pass Details

Date: 26 January 2020
Orbit: 485 x 2307 km, 28.3° (Epoch: 23 February)

Event Time Altitude Azimuth Distance (km) Brightness Sun altitude
Exits shadow 09:24:03 35° 339° (NNW) 908 3.6 -19.6°
Maximum altitude 09:24:06 35° 341° (NNW) 906 3.6 -19.6°
Drops below altitude 10° 09:27:33 10° 49° (NE) 1,690 5.8 -18.8°
Sets 09:29:43 0° 59° (ENE) 2,534 6.9 -18.3°
